Temp
50 50 50 51 51 51 51 51 51 51 51 51 51 51 52 51 50 53 51 51 49 40 44 48 49 46 44 41 36 41 41 36 35 31 28 26 20 30 29 34 30 31 26 24 26 25 22 42 42 35 41 42 45 43
50 50 49 50 50 50 51 51 50 50 50 50 51 51 51 52 50 53 49 51 50 47 47 48 50 50 51 51 45 41 42 39 38 34 33 29 25 25 28 29 36 31 37 33 35 31 41 46 47 46 47 45 42 40
50 50 49 49 49 50 50 50 50 50 50 50 50 51 51 51 52 52 49 48 47 39 44 45 46 51 54 53 53 42 36 45 40 42 33 32 29 31 31 31 34 38 42 35 37 41 43 46 48 48 44 42 44 43
49 48 49 49 49 49 50 50 50 50 50 50 50 50 50 51 52 52 49 48 47 41 34 41 49 48 53 53 52 51 50 46 43 39 34 33 33 41 34 39 37 39 39 37 38 44 45 45 46 45 44 43 41 42
48 48 48 48 48 48 49 49 49 49 50 50 50 50 50 50 51 50 49 50 51 47 36 37 45 49 51 51 50 48 48 44 41 36 34 35 35 36 35 35 35 42 40 37 37 46 44 44 42 43 39 37 39 41
48 47 47 47 48 48 48 48 48 48 49 49 50 50 50 50 51 51 46 51 51 53 40 35 43 41 44 48 46 47 46 44 43 39 35 38 43 39 33 33 44 47 49 50 45 49 43 41 40 40 38 41 42 42
47 47 47 47 47 48 48 48 48 48 48 49 49 49 50 50 52 48 45 46 51 52 37 35 36 37 40 42 42 42 45 44 44 38 35 37 38 41 33 35 46 48 48 47 48 44 39 41 37 41 40 41 41 40
47 47 47 47 47 47 47 47 47 48 48 48 48 48 49 49 49 46 46 48 51 45 39 34 35 36 41 33 34 40 36 37 37 39 35 34 37 34 34 40 43 46 47 43 40 41 41 42 42 40 41 41 37 37
47 47 47 47 47 47 47 48 48 48 48 48 48 48 47 45 41 43 47 48 46 44 34 33 34 33 42 37 35 35 35 33 36 33 34 36 33 34 34 36 37 37 39 35 36 38 39 39 40 40 39 38 35 33
47 47 47 47 47 47 47 47 47 48 48 48 46 42 35 39 47 47 43 38 36 35 34 33 35 34 40 34 33 34 33 32 32 33 35 33 33 37 37 39 38 37 37 39 34 33 35 35 37 37 35 35 33 32
47 47 47 47 47 47 47 47 47 47 47 43 37 35 42 47 43 37 34 33 33 32 33 34 34 34 38 34 33 33 33 32 27 25 30 30 29 32 35 35 37 38 39 41 41 40 40 38 35 34 34 33 32 31
47 47 47 47 47 47 47 47 47 46 44 44 43 43 41 37 34 34 32 31 31 30 32 32 33 36 34 37 33 32 30 30 24 26 25 19 28 33 35 36 37 38 37 38 38 37 35 35 35 33 33 34 32 32
47 47 47 46 47 47 47 47 47 47 46 43 37 34 33 32 29 29 23 26 28 31 33 33 32 32 34 34 31 31 26 21 29 22 20 23 30 37 37 37 37 38 36 32 35 35 35 33 32 30 30 31 28 28
46 46 46 46 46 47 47 47 47 45 42 33 30 28 26 25 26 24 24 27 29 33 33 33 31 30 30 28 28 25 25 26 21 16 18 24 34 37 37 35 34 34 29 28 32 32 30 28 29 29 26 27 25 26
46 46 46 46 47 47 47 46 45 41 35 28 27 22 23 25 29 31 32 33 32 33 33 31 29 26 26 21 27 24 23 20 19 16 19 28 34 33 33 34 34 30 27 27 32 29 26 26 25 27 29 26 25 25
46 46 44 46 47 47 46 44 41 37 29 25 21 23 26 28 28 29 32 32 33 32 30 28 18 16 17 20 20 21 17 14 17 16 26 30 32 32 33 32 32 32 31 32 32 30 30 27 26 30 30 28 27 25
45 40 45 46 45 44 45 38 33 28 25 21 20 27 22 21 23 20 32 32 33 30 26 16 14 17 19 11 14 19 13 17 21 23 25 30 32 32 32 32 29 29 32 31 31 30 31 30 26 24 26 30 29 30
41 44 46 46 43 42 38 33 27 26 24 23 21 18 28 22 23 20 28 26 27 23 22 22 22 12 9 9 10 16 20 21 22 24 27 30 31 31 32 31 32 32 31 31 28 28 27 24 26 30 30 31 31 32
43 44 45 46 42 33 30 30 31 23 22 22 23 23 21 19 21 25 23 23 29 31 29 23 9 12 15 18 16 14 14 18 24 28 29 30 31 31 31 32 31 31 31 29 30 29 30 30 31 30 30 30 31 32
44 43 43 44 42 30 24 29 30 26 23 25 23 22 21 21 24 26 24 19 25 26 26 25 19 19 21 23 25 24 25 26 23 23 28 27 29 30 31 31 31 31 30 29 26 22 26 30 33 28 27 32 32 31
41 40 41 39 31 29 26 22 22 23 25 23 23 23 19 23 24 24 19 25 22 21 21 25 22 26 29 27 29 29 29 28 28 26 26 28 29 28 29 30 29 26 24 22 21 26 27 31 32 33 32 32 33 33
38 40 34 34 25 22 23 24 23 23 21 20 19 19 11 11 16 24 21 27 27 24 27 27 32 30 30 30 31 30 32 31 31 29 26 27 25 25 25 26 21 23 21 22 24 25 29 32 31 32 32 33 33 30
39 37 26 22 18 16 17 24 17 22 15 14 14 14 11 9 15 25 24 28 25 28 29 29 31 32 32 33 31 31 32 31 29 29 28 27 27 26 25 24 21 25 24 26 23 24 28 31 31 32 33 32 32 29
37 23 17 15 13 14 14 24 20 15 11 11 10 8 13 12 17 21 17 15 24 25 26 31 30 28 26 29 27 30 31 28 27 25 25 24 25 27 25 24 21 22 28 27 25 26 27 29 32 31 31 28 27 26
23 20 16 18 23 17 14 22 19 13 8 2 7 6 10 10 9 8 10 18 15 17 24 24 24 26 25 23 23 25 27 27 26 25 28 25 24 21 22 22 23 28 29 18 26 28 30 30 30 30 30 30 28 25
11 18 13 10 21 11 10 6 14 11 2 3 10 8 1 3 5 11 17 17 14 19 15 16 18 18 21 26 24 24 29 25 23 21 26 25 25 25 22 28 28 29 25 27 27 28 28 29 28 28 28 29 29 29
11 18 25 23 22 17 8 5 10 6 2 7 6 3 4 6 7 17 21 22 24 24 25 25 26 26 27 28 26 26 22 21 24 26 23 26 29 30 30 27 25 24 25 28 28 28 27 27 26 27 27 28 29 30
15 16 17 22 20 14 8 3 5 7 10 15 10 7 10 12 15 22 24 26 26 25 25 26 26 25 24 23 23 19 26 25 21 23 21 21 22 20 21 20 20 27 27 28 27 29 28 25 25 25 25 26 27 29
23 19 15 15 11 8 12 14 13 17 22 20 16 12 15 21 21 22 21 20 18 21 19 20 22 17 21 20 19 26 29 29 26 24 20 14 19 21 21 23 25 27 28 27 20 19 18 16 14 13 18 22 24 25
19 15 13 6 10 13 18 21 15 15 15 18 17 21 23 19 14 17 18 20 22 23 24 25 26 26 26 26 24 25 20 21 22 22 17 15 15 16 18 19 23 25 25 23 22 16 16 11 13 12 14 16 18 17
9 9 11 9 10 12 14 6 2 3 4 11 14 20 26 18 17 15 16 14 16 17 17 14 17 17 16 16 17 17 17 15 15 15 14 13 16 17 17 17 17 17 17 21 18 9 5 3 3 3 13 10 8 9
17 8 8 6 10 10 2 4 2 3 8 3 19 6 7 8 9 13 16 15 13 12 12 12 11 12 17 19 18 18 19 18 16 16 15 15 14 14 13 12 10 7 5 7 5 3 -1 -2 -1 3 5 6 6 5
-3 -5 -7 -2 4 7 2 6 4 3 -1 -3 -1 -1 -2 6 5 10 14 15 14 12 12 13 14 16 17 18 17 17 17 16 16 16 16 14 12 10 7 4 -0 -1 1 1 1 -2 -1 -2 -2 -2 -0 0 0 0
MSLP
1014.54 1014.50 1014.76 1015.23 1015.68 1016.09 1016.66 1017.20 1017.63 1018.05 1018.39 1018.60 1018.79 1018.87 1018.83 1018.67 1018.42 1018.41 1019.65 1019.37 1019.74 1021.20 1021.31 1021.01 1020.71 1020.88 1021.51 1021.97 1022.86 1023.60 1024.49 1025.08 1026.38 1027.39 1028.47 1028.97 1028.82 1028.00 1027.54 1026.75 1026.51 1026.80 1026.97 1026.91 1026.78 1025.84 1023.13 1020.90 1021.06 1021.24 1020.63 1020.37 1020.08 1020.20
1014.62 1014.40 1014.68 1014.91 1015.34 1015.80 1016.30 1016.93 1017.45 1017.87 1018.25 1018.59 1018.83 1019.00 1019.11 1019.09 1018.85 1018.63 1019.71 1019.76 1019.81 1020.62 1021.35 1021.11 1020.69 1020.45 1020.40 1020.80 1021.67 1023.11 1023.85 1024.35 1025.12 1026.55 1027.74 1028.38 1028.39 1027.78 1026.95 1026.40 1025.60 1025.62 1024.40 1024.36 1024.57 1023.10 1021.21 1020.67 1020.25 1019.93 1019.90 1020.07 1020.20 1020.56
1014.30 1014.53 1014.65 1014.54 1014.97 1015.43 1015.91 1016.54 1017.17 1017.61 1018.00 1018.40 1018.74 1019.03 1019.28 1019.34 1019.18 1019.01 1019.92 1020.21 1020.60 1021.72 1021.52 1021.36 1020.94 1020.53 1020.33 1020.51 1020.77 1022.13 1023.58 1023.57 1024.43 1024.76 1026.23 1027.13 1027.38 1026.62 1026.27 1025.27 1024.49 1023.83 1023.23 1023.27 1022.93 1021.14 1020.40 1019.89 1019.60 1019.69 1020.09 1020.37 1020.90 1020.99
1014.58 1014.74 1014.56 1014.36 1014.65 1015.06 1015.53 1016.10 1016.77 1017.29 1017.71 1018.13 1018.61 1018.98 1019.28 1019.50 1019.55 1019.47 1020.08 1020.40 1020.71 1022.24 1022.73 1021.99 1021.20 1020.88 1020.46 1020.40 1020.74 1021.05 1021.81 1022.99 1023.84 1024.81 1025.93 1026.42 1026.42 1025.13 1024.69 1023.81 1023.64 1023.08 1022.85 1022.28 1021.43 1020.51 1020.01 1020.03 1019.91 1020.32 1020.56 1021.17 1021.80 1021.94
1014.94 1014.61 1014.56 1014.41 1014.44 1014.72 1015.13 1015.70 1016.35 1016.92 1017.37 1017.91 1018.39 1018.87 1019.24 1019.54 1019.78 1019.99 1020.39 1020.48 1020.42 1021.13 1022.53 1022.56 1021.51 1020.81 1020.64 1020.74 1021.12 1021.54 1022.17 1022.99 1024.08 1024.98 1025.44 1025.48 1024.97 1024.78 1023.61 1023.03 1022.66 1022.20 1021.56 1021.42 1020.04 1019.71 1019.98 1020.13 1020.83 1021.20 1021.86 1022.52 1022.57 1022.15
1015.02 1014.55 1014.63 1014.50 1014.18 1014.28 1014.73 1015.33 1016.02 1016.65 1017.16 1017.60 1018.15 1018.73 1019.23 1019.62 1019.92 1020.38 1020.95 1020.38 1020.45 1020.58 1022.11 1022.77 1021.87 1021.45 1021.38 1021.07 1021.36 1021.84 1022.22 1022.89 1023.48 1023.96 1024.35 1023.90 1022.98 1023.25 1022.91 1022.00 1020.85 1020.38 1020.08 1019.82 1019.48 1019.57 1020.45 1021.07 1021.32 1021.93 1022.45 1022.20 1022.19 1022.09
1015.26 1015.04 1014.87 1014.96 1014.64 1014.43 1014.61 1015.07 1015.66 1016.32 1016.93 1017.43 1017.99 1018.56 1019.07 1019.50 1019.85 1020.62 1021.04 1020.85 1020.53 1020.79 1022.31 1023.00 1022.52 1022.07 1021.90 1021.84 1021.99 1022.25 1022.41 1022.59 1023.06 1023.37 1023.31 1023.47 1023.07 1022.90 1022.23 1021.43 1020.66 1020.19 1019.65 1019.68 1019.88 1020.37 1021.05 1021.39 1021.95 1022.22 1022.38 1022.36 1022.29 1022.07
1015.59 1015.61 1014.97 1015.23 1015.06 1015.01 1015.00 1015.03 1015.50 1016.02 1016.70 1017.18 1017.87 1018.51 1019.07 1019.69 1020.25 1020.61 1020.81 1020.63 1020.59 1021.41 1022.38 1023.04 1022.89 1022.74 1022.26 1022.73 1023.26 1023.26 1023.16 1023.19 1023.08 1023.06 1023.07 1023.02 1022.88 1022.56 1021.88 1021.25 1020.74 1020.37 1020.17 1020.74 1021.15 1021.11 1021.68 1022.14 1022.35 1022.49 1022.38 1022.15 1022.11 1022.06
1015.72 1015.80 1015.44 1015.57 1015.54 1015.36 1015.26 1015.43 1015.67 1015.94 1016.58 1016.99 1017.95 1018.72 1019.46 1019.93 1020.45 1020.67 1020.98 1020.61 1021.26 1022.00 1022.39 1022.64 1022.92 1022.92 1022.69 1023.30 1023.47 1023.71 1023.53 1023.69 1023.66 1023.27 1023.14 1023.15 1022.90 1022.87 1022.64 1022.14 1021.67 1021.25 1021.06 1022.21 1022.30 1022.40 1022.65 1022.91 1023.04 1022.91 1022.54 1022.34 1022.18 1021.93
1015.94 1016.03 1016.05 1015.93 1015.88 1015.89 1015.78 1015.92 1016.13 1016.43 1016.61 1017.58 1018.03 1019.09 1020.31 1020.46 1020.34 1020.71 1021.11 1021.44 1021.69 1022.79 1022.78 1022.87 1023.09 1022.69 1023.08 1023.45 1023.88 1024.25 1024.13 1024.18 1024.22 1023.86 1023.60 1023.24 1023.08 1023.28 1023.21 1022.91 1022.67 1022.51 1022.59 1022.59 1022.66 1023.03 1023.10 1022.89 1022.72 1022.61 1022.60 1022.36 1022.17 1021.77
1016.00 1016.14 1016.29 1016.24 1016.38 1016.28 1016.01 1016.21 1016.53 1016.70 1017.44 1017.91 1018.92 1020.20 1020.67 1020.52 1020.41 1021.44 1022.01 1022.49 1022.87 1023.16 1023.35 1023.30 1023.38 1023.07 1023.12 1023.60 1023.86 1024.28 1024.33 1024.54 1024.68 1024.55 1024.29 1023.59 1023.53 1023.77 1023.69 1023.37 1023.20 1023.01 1022.94 1022.97 1023.00 1023.01 1023.06 1023.02 1022.93 1022.65 1022.23 1021.93 1021.66 1021.46
1016.14 1016.28 1016.57 1016.54 1016.59 1016.67 1016.68 1016.70 1016.92 1017.38 1017.83 1018.03 1018.66 1020.05 1020.76 1021.20 1021.60 1022.11 1022.59 1023.25 1023.21 1023.23 1023.40 1023.44 1023.51 1023.53 1023.92 1023.86 1023.95 1024.62 1024.61 1025.01 1025.24 1025.21 1024.96 1024.22 1023.55 1023.62 1023.69 1023.48 1023.21 1023.19 1023.21 1023.20 1023.18 1023.30 1023.23 1023.09 1022.86 1022.57 1022.25 1021.81 1021.53 1021.24
1016.18 1016.67 1016.82 1016.70 1016.91 1017.05 1017.06 1017.04 1017.34 1017.68 1017.70 1018.28 1019.26 1020.84 1021.52 1022.50 1022.65 1022.70 1023.15 1023.48 1023.50 1023.27 1023.37 1023.59 1023.95 1024.25 1024.34 1024.49 1024.78 1025.01 1025.35 1025.77 1025.66 1025.82 1025.25 1024.15 1023.66 1023.60 1023.58 1023.52 1023.32 1023.19 1023.33 1023.47 1023.53 1023.46 1023.28 1023.01 1022.66 1022.54 1022.26 1021.78 1021.40 1020.92
1016.39 1016.72 1016.81 1017.14 1017.27 1017.34 1017.45 1017.64 1017.76 1017.90 1018.14 1019.51 1020.78 1022.38 1022.79 1023.17 1023.38 1023.27 1023.22 1023.08 1023.33 1023.48 1023.70 1024.03 1024.64 1024.99 1025.19 1025.37 1025.54 1025.91 1026.23 1026.32 1026.29 1026.39 1025.64 1024.60 1024.02 1023.84 1023.81 1023.77 1023.78 1023.77 1023.63 1023.58 1023.48 1023.14 1023.04 1023.01 1022.50 1022.07 1021.88 1021.43 1021.14 1020.46
1016.40 1016.84 1017.37 1017.63 1017.63 1017.68 1017.79 1018.08 1018.06 1018.43 1019.67 1021.24 1022.02 1023.37 1023.67 1023.50 1023.52 1023.53 1023.57 1023.53 1023.76 1023.96 1024.22 1024.84 1025.58 1026.00 1026.43 1026.50 1026.38 1026.78 1027.06 1026.89 1026.51 1026.32 1025.67 1024.78 1024.26 1024.18 1024.12 1023.91 1023.97 1023.80 1023.73 1023.38 1023.16 1023.05 1022.73 1022.40 1022.14 1021.66 1020.93 1020.53 1020.24 1019.79
1016.55 1017.16 1017.55 1017.73 1017.95 1017.84 1018.01 1018.17 1018.75 1019.80 1021.64 1022.65 1023.34 1024.34 1024.14 1024.33 1024.73 1024.54 1024.21 1024.19 1024.18 1024.42 1024.89 1025.42 1026.57 1027.17 1027.19 1027.27 1027.45 1027.39 1027.62 1026.94 1026.31 1025.97 1025.20 1024.60 1024.33 1024.28 1024.07 1023.85 1023.56 1023.36 1023.34 1023.07 1022.74 1022.47 1022.17 1021.79 1021.52 1021.08 1020.27 1019.93 1019.40 1019.05
1016.39 1017.03 1017.49 1018.00 1018.28 1018.21 1018.34 1019.04 1020.03 1021.55 1022.76 1023.66 1024.37 1024.37 1024.45 1024.89 1025.13 1025.00 1024.32 1024.39 1024.39 1024.91 1025.80 1026.42 1027.16 1027.18 1027.85 1028.16 1028.05 1027.43 1026.98 1026.05 1025.66 1025.37 1025.02 1024.63 1024.33 1024.11 1023.60 1023.21 1023.17 1023.00 1022.77 1022.49 1022.20 1021.81 1021.52 1021.16 1020.95 1020.75 1019.99 1018.97 1018.59 1018.05
1016.76 1017.27 1017.74 1018.12 1018.29 1018.65 1019.69 1020.49 1021.61 1022.71 1023.78 1024.51 1024.75 1024.91 1024.99 1025.19 1025.19 1025.32 1025.00 1024.94 1024.92 1025.14 1025.93 1026.72 1027.07 1027.84 1027.86 1027.73 1027.16 1026.27 1026.00 1025.52 1025.13 1024.83 1024.42 1024.19 1024.04 1023.57 1023.22 1023.04 1022.76 1022.56 1022.24 1021.87 1021.62 1021.39 1021.12 1020.80 1020.48 1019.91 1019.27 1018.48 1017.87 1017.19
1016.81 1017.53 1018.06 1018.32 1018.59 1019.71 1021.23 1021.99 1022.26 1023.59 1024.26 1024.55 1024.78 1024.96 1025.18 1025.35 1025.51 1025.42 1025.27 1025.00 1024.86 1024.99 1025.68 1026.54 1027.29 1027.30 1026.39 1025.92 1025.51 1025.49 1025.47 1025.69 1025.04 1024.17 1023.78 1023.53 1023.32 1023.01 1022.74 1022.52 1022.24 1021.90 1021.65 1021.48 1021.28 1020.96 1020.51 1020.10 1019.69 1019.06 1018.55 1018.08 1017.31 1016.68
1017.38 1017.94 1018.26 1018.40 1018.81 1020.63 1022.37 1022.94 1022.88 1023.70 1024.70 1024.59 1024.82 1025.42 1025.56 1025.70 1025.82 1025.85 1025.74 1025.58 1025.35 1025.46 1025.68 1025.77 1025.60 1025.26 1024.95 1024.26 1024.06 1024.13 1024.08 1024.19 1024.20 1023.85 1023.15 1022.77 1022.56 1022.36 1022.19 1021.95 1021.68 1021.47 1021.33 1020.99 1020.82 1020.64 1020.06 1019.45 1018.88 1018.44 1018.00 1017.40 1016.73 1016.18
1017.94 1018.84 1018.99 1019.20 1020.46 1021.17 1022.49 1023.47 1024.21 1024.54 1024.76 1024.87 1025.12 1025.54 1026.31 1026.23 1026.17 1026.12 1026.03 1025.34 1025.51 1025.24 1024.85 1024.12 1023.74 1023.06 1022.74 1022.78 1023.01 1023.06 1023.10 1023.29 1023.28 1023.09 1022.60 1022.08 1021.88 1021.91 1021.69 1021.43 1021.22 1021.26 1021.13 1020.84 1020.63 1020.03 1019.61 1018.97 1018.33 1017.81 1017.23 1016.63 1016.16 1015.80
1018.79 1019.07 1020.07 1020.42 1021.91 1022.89 1023.67 1024.19 1024.38 1024.69 1025.20 1025.54 1025.92 1026.34 1027.18 1027.12 1026.69 1026.19 1025.84 1025.74 1025.10 1024.11 1023.09 1022.33 1022.14 1022.21 1022.20 1022.27 1021.94 1021.93 1021.83 1021.86 1021.88 1021.89 1021.82 1021.69 1021.69 1021.42 1021.17 1020.93 1021.02 1020.81 1020.63 1020.44 1020.06 1019.54 1018.78 1018.08 1017.61 1017.21 1016.67 1016.11 1015.75 1015.39
1018.84 1019.57 1021.25 1022.23 1023.39 1024.04 1024.98 1024.35 1024.84 1025.35 1025.96 1026.80 1027.13 1027.81 1027.97 1027.57 1026.71 1026.20 1025.82 1025.08 1024.06 1022.17 1021.65 1021.72 1021.46 1021.34 1021.42 1021.14 1021.14 1020.99 1020.85 1021.01 1021.20 1021.14 1021.02 1020.91 1020.70 1020.56 1020.44 1020.33 1020.45 1020.49 1020.07 1019.51 1019.16 1018.82 1018.25 1017.60 1017.09 1016.68 1016.18 1015.73 1015.38 1015.18
1019.64 1021.18 1022.65 1023.39 1024.11 1025.35 1025.20 1025.26 1025.63 1026.34 1026.86 1027.55 1028.35 1028.51 1028.39 1027.61 1027.05 1026.58 1025.94 1024.81 1022.75 1021.91 1021.75 1021.26 1021.14 1021.19 1021.07 1020.82 1020.76 1020.31 1020.16 1020.33 1020.44 1020.42 1020.26 1020.43 1020.41 1019.86 1019.48 1019.51 1019.49 1019.46 1019.30 1018.84 1018.54 1018.19 1017.76 1017.22 1016.61 1016.24 1015.90 1015.50 1015.19 1015.00
1020.68 1022.92 1023.47 1024.50 1024.90 1025.62 1026.09 1026.26 1026.76 1027.38 1027.99 1028.89 1029.11 1028.68 1027.86 1027.55 1027.46 1026.60 1025.44 1023.91 1022.78 1021.82 1021.56 1020.89 1020.83 1020.75 1020.85 1020.46 1020.24 1019.85 1019.58 1019.89 1019.94 1019.98 1019.31 1019.38 1019.29 1019.17 1019.08 1018.87 1018.66 1018.48 1018.20 1018.31 1018.13 1017.63 1017.22 1016.84 1016.42 1015.92 1015.48 1014.98 1014.69 1014.42
1022.28 1023.62 1024.32 1024.50 1025.17 1026.01 1026.52 1027.21 1027.54 1027.77 1028.48 1028.78 1028.66 1028.19 1027.75 1027.67 1027.29 1025.79 1023.81 1022.29 1022.08 1021.28 1021.21 1020.85 1020.66 1020.72 1020.43 1020.20 1020.17 1019.69 1019.29 1019.01 1019.36 1019.50 1018.84 1018.74 1018.74 1018.73 1018.54 1018.45 1018.21 1017.88 1017.68 1017.82 1017.71 1017.28 1016.82 1016.36 1015.93 1015.48 1015.07 1014.53 1014.07 1013.75
1023.33 1024.02 1024.08 1024.21 1024.67 1025.42 1026.54 1026.91 1027.13 1027.42 1027.91 1027.82 1027.65 1027.95 1027.73 1027.09 1025.51 1023.49 1021.59 1020.90 1020.75 1019.89 1019.46 1019.27 1019.42 1019.48 1019.43 1019.15 1018.98 1018.75 1018.90 1018.89 1018.85 1018.47 1018.28 1018.29 1018.16 1018.05 1018.07 1018.04 1017.98 1017.94 1017.71 1017.58 1017.37 1017.01 1016.50 1016.07 1015.74 1015.27 1014.77 1014.18 1013.69 1013.24
1022.86 1023.46 1023.86 1024.38 1024.71 1024.94 1025.93 1026.65 1027.21 1026.80 1026.25 1025.71 1026.19 1026.38 1025.55 1024.67 1023.04 1021.59 1020.42 1019.53 1019.22 1018.89 1018.90 1018.71 1018.73 1018.74 1018.86 1018.71 1018.60 1018.56 1018.46 1018.19 1018.28 1018.19 1018.11 1017.92 1017.59 1017.66 1017.82 1017.92 1017.77 1017.60 1017.44 1017.32 1017.10 1016.71 1016.50 1016.36 1015.94 1015.49 1015.00 1014.37 1013.61 1012.98
1023.02 1023.40 1023.88 1024.58 1025.01 1025.29 1025.34 1025.36 1025.28 1024.53 1023.69 1023.97 1024.03 1023.50 1022.53 1021.92 1020.99 1020.63 1020.16 1019.96 1019.64 1019.46 1019.53 1019.34 1019.11 1018.86 1018.68 1018.63 1018.36 1018.28 1018.26 1018.32 1018.52 1018.71 1018.89 1018.73 1018.48 1018.45 1018.25 1018.01 1017.75 1017.46 1017.34 1017.22 1017.04 1016.86 1016.56 1016.29 1016.02 1015.88 1015.44 1014.97 1014.25 1013.55
1023.54 1023.60 1024.43 1024.82 1025.20 1024.92 1024.00 1023.63 1023.57 1022.95 1022.75 1022.37 1022.29 1021.80 1021.33 1020.99 1021.35 1021.82 1021.41 1020.92 1020.61 1020.39 1020.07 1019.84 1019.53 1019.26 1019.27 1019.07 1018.81 1018.69 1018.77 1018.71 1018.80 1018.94 1019.05 1019.17 1019.21 1019.12 1018.81 1018.56 1018.15 1017.80 1017.62 1017.48 1017.31 1017.21 1016.61 1016.42 1016.17 1015.83 1015.66 1015.41 1015.16 1014.83
1023.99 1024.43 1024.97 1025.25 1025.02 1024.05 1023.56 1023.31 1023.06 1023.10 1023.11 1022.53 1021.84 1021.82 1020.98 1021.09 1022.13 1022.84 1022.79 1022.62 1022.11 1021.59 1021.21 1021.02 1020.68 1020.51 1020.28 1019.92 1019.72 1019.52 1019.47 1019.63 1019.45 1019.41 1019.42 1019.47 1019.44 1019.37 1019.27 1019.07 1018.80 1018.46 1018.13 1017.77 1017.73 1017.88 1017.67 1017.57 1017.44 1017.12 1016.87 1016.92 1016.81 1016.58
1024.99 1025.41 1025.64 1026.19 1025.34 1024.02 1024.01 1024.23 1024.25 1023.89 1023.21 1022.83 1021.84 1021.06 1021.15 1021.68 1023.12 1023.76 1024.14 1023.68 1023.22 1022.71 1022.43 1022.13 1021.65 1021.18 1020.82 1020.47 1020.24 1020.14 1020.06 1020.08 1019.98 1019.92 1019.88 1019.92 1019.96 1019.94 1019.81 1019.55 1019.24 1018.90 1018.61 1018.54 1018.60 1018.70 1018.63 1018.65 1018.61 1018.47 1018.42 1018.40 1018.35 1018.31
1025.99 1026.12 1026.23 1026.48 1025.80 1025.48 1025.33 1025.17 1025.10 1024.68 1023.84 1024.03 1022.94 1023.13 1023.13 1023.39 1024.71 1025.38 1025.07 1024.89 1024.57 1024.10 1023.47 1022.72 1022.08 1021.68 1021.23 1021.00 1021.02 1020.99 1020.95 1020.90 1020.67 1020.55 1020.41 1020.47 1020.52 1020.54 1020.39 1020.14 1019.83 1019.53 1019.35 1019.49 1019.64 1019.72 1019.80 1019.79 1019.84 1019.78 1019.74 1019.76 1019.80 1019.81
Wind_Speed
8 4 12 14 14 14 13 11 10 8 6 5 2 2 6 8 10 4 1 4 4 3 3 4 2 5 2 2 5 4 5 4 3 4 4 4 3 6 2 4 6 6 5 5 1 2 10 5 2 4 7 4 5 5
7 5 8 13 15 14 14 12 11 10 8 7 5 2 3 7 8 4 3 2 2 5 3 1 3 1 3 7 6 1 3 4 5 5 2 3 3 1 5 4 2 4 9 5 9 10 5 5 7 6 2 6 5 2
5 6 7 11 13 15 15 14 12 11 10 8 7 5 3 4 7 5 3 1 4 4 4 3 2 4 1 4 3 5 3 3 2 2 5 2 3 4 5 7 5 5 4 5 2 7 13 8 13 8 3 1 2 6
5 5 7 4 11 14 15 15 14 13 11 10 9 7 7 5 5 6 3 1 5 4 4 6 3 4 3 3 3 2 5 5 5 3 3 3 3 5 4 5 5 6 3 4 8 15 14 13 12 4 5 10 8 3
4 8 9 7 7 13 15 14 14 13 12 11 10 9 8 8 7 5 2 1 1 5 4 4 5 4 3 0 3 0 3 4 3 2 2 4 2 1 3 3 4 6 8 6 11 13 11 6 10 13 14 10 4 7
5 9 10 9 5 10 14 15 14 13 12 12 11 11 11 11 8 4 3 2 3 2 4 2 3 1 5 4 2 4 4 3 4 4 4 3 3 4 4 4 4 13 13 14 15 7 5 9 13 11 4 4 7 7
4 6 9 7 7 3 10 13 14 14 13 13 12 12 13 13 3 3 5 1 4 3 4 3 4 3 2 4 3 2 1 2 3 2 3 3 4 4 2 9 7 11 9 6 4 7 4 2 3 3 3 5 6 7
4 3 11 8 8 7 4 8 12 14 16 16 14 13 12 11 8 2 2 3 2 5 3 3 3 4 2 2 2 2 1 1 1 2 1 2 2 1 4 3 6 5 4 11 11 12 9 6 4 4 5 6 7 8
6 4 9 7 5 5 4 5 9 12 12 16 17 17 5 3 2 2 6 8 4 2 4 3 5 4 2 1 1 2 1 1 1 0 1 2 1 5 4 8 8 7 5 9 9 11 10 8 6 7 9 8 7 8
7 5 5 6 6 4 4 9 10 13 20 16 4 4 2 2 8 5 5 3 3 4 3 2 2 2 2 1 1 2 2 1 2 1 2 2 1 3 6 6 7 10 10 8 6 7 6 6 8 9 8 7 7 7
7 6 5 6 7 9 9 12 15 19 6 3 3 3 1 1 4 4 3 2 0 1 1 1 2 2 3 2 3 1 1 1 2 4 2 1 2 3 1 4 4 5 5 3 3 4 6 8 9 10 11 8 7 7
8 7 6 6 6 6 10 10 7 3 2 5 7 5 3 2 3 3 2 1 2 3 2 2 1 1 1 1 2 0 2 1 4 1 1 3 3 4 4 4 5 1 2 3 3 6 8 8 8 8 10 11 9 10
9 9 8 7 7 8 6 4 5 12 5 3 5 4 3 3 2 5 6 2 2 2 2 2 2 1 1 3 2 1 2 4 1 1 4 4 4 4 4 1 4 6 5 6 7 7 8 9 9 7 11 11 10 11
11 9 9 8 9 9 11 9 6 4 4 5 4 4 2 1 1 4 2 3 1 1 2 2 2 2 1 2 1 2 1 1 1 2 6 2 3 3 2 2 3 6 6 7 8 8 8 9 11 12 9 10 8 11
12 11 10 9 10 10 11 9 7 5 4 4 4 3 3 2 1 1 0 2 1 2 2 3 3 2 1 3 1 2 1 3 5 5 3 3 3 2 3 3 7 7 7 7 8 7 9 9 8 12 11 8 7 9
15 12 2 11 10 10 8 7 6 3 4 4 5 4 1 2 1 1 2 2 1 2 2 3 3 4 2 3 3 5 5 6 5 4 3 1 2 4 5 6 7 7 8 9 8 8 9 8 9 12 14 11 10 8
11 2 12 13 14 14 11 5 4 6 4 4 2 1 3 2 4 4 2 2 2 3 2 3 4 7 2 3 2 5 6 5 4 3 2 3 4 7 8 7 7 8 9 8 9 8 9 9 7 6 11 13 9 9
3 9 17 13 6 6 4 4 5 4 3 1 2 2 1 2 2 1 1 1 3 3 3 3 3 3 5 5 5 5 4 3 3 3 3 5 7 9 7 9 10 9 9 8 7 8 7 7 7 9 11 11 10 10
11 12 13 9 7 6 4 3 3 3 2 2 0 1 2 2 1 1 1 1 1 2 4 2 3 4 5 4 5 3 3 3 4 4 4 6 7 8 8 8 8 9 8 7 7 6 7 8 9 8 8 8 8 8
20 17 13 10 7 4 4 2 2 4 2 2 2 1 2 2 0 1 1 0 3 3 3 4 5 4 5 4 4 4 4 4 2 4 7 4 5 7 7 7 7 7 7 6 5 5 6 8 7 6 5 9 8 8
12 4 11 5 4 5 4 2 3 2 2 2 0 2 1 1 1 0 1 1 2 3 3 5 5 5 5 3 4 4 5 5 6 6 6 8 4 4 5 6 5 4 4 4 5 6 6 8 8 10 9 8 8 6
4 9 4 5 5 5 4 2 3 1 3 1 3 2 2 1 2 2 2 4 5 5 6 5 6 4 5 5 7 6 7 7 6 5 6 7 5 3 3 4 1 4 4 5 6 7 7 7 7 8 8 9 8 4
8 5 5 4 6 6 3 1 5 2 4 2 3 3 3 2 3 1 3 4 5 5 4 4 6 6 8 8 5 7 7 7 5 6 6 5 5 5 5 5 4 5 6 6 4 5 6 9 9 8 8 8 6 3
4 5 4 3 5 1 2 2 2 3 3 3 3 2 3 4 0 1 4 4 6 1 3 6 4 3 2 5 4 6 5 4 4 3 4 4 6 7 5 4 3 4 5 6 5 6 6 8 9 5 10 8 6 4
7 3 7 3 1 4 3 4 1 2 3 2 3 4 4 2 2 3 5 5 3 3 4 2 2 4 4 3 3 4 5 5 5 5 5 5 4 4 3 3 4 5 2 2 6 6 9 9 10 10 9 9 8 7
4 2 5 5 4 4 6 5 5 6 3 3 6 2 3 4 2 7 5 5 4 4 4 4 3 1 3 5 4 3 5 2 3 3 4 4 5 4 3 6 6 4 2 2 4 9 10 9 10 11 11 12 10 10
3 4 3 0 3 4 3 2 2 4 4 6 4 2 3 3 7 6 4 3 3 4 4 3 4 5 5 4 4 4 3 3 6 5 2 3 4 5 5 5 5 3 2 5 6 8 10 10 9 9 10 10 9 9
5 5 7 5 3 1 5 2 5 6 5 3 4 4 8 10 7 5 6 4 5 2 3 3 3 1 2 3 3 3 4 2 2 2 3 3 3 0 1 2 3 6 2 4 5 7 6 6 7 8 10 11 12 10
2 2 4 4 1 1 5 7 6 5 4 5 5 5 7 5 4 2 3 3 3 3 3 4 5 3 4 4 4 3 2 2 1 6 8 4 3 2 4 4 4 2 2 4 7 6 7 5 4 3 6 6 7 7
4 3 3 3 5 6 6 7 5 4 2 4 2 4 4 3 3 4 6 6 6 5 3 3 3 3 4 4 3 2 4 3 3 1 1 2 3 3 4 4 5 5 4 4 4 6 7 5 5 5 5 5 6 6
1 3 2 1 5 5 5 2 2 0 1 4 4 7 12 2 4 4 9 6 6 6 6 7 6 4 4 5 3 4 2 3 4 4 3 1 2 3 4 5 5 5 4 4 3 2 3 4 4 4 6 7 8 8
1 4 5 3 5 4 4 2 2 2 4 1 6 1 4 3 4 4 7 7 7 8 8 7 6 5 6 5 1 2 5 3 3 3 5 3 3 4 4 4 5 4 3 3 3 3 4 5 4 6 5 7 8 8
2 2 2 2 5 6 4 3 4 6 3 3 3 0 1 3 4 3 4 7 7 8 9 9 7 6 5 7 7 6 6 5 8 9 9 7 7 6 4 4 4 4 4 4 5 4 6 6 6 6 7 7 7 7
Wind_Direction
341 272 196 188 186 179 180 184 187 187 188 199 195 14 14 27 20 68 116 20 104 111 261 188 178 126 99 107 139 206 56 349 62 95 139 205 153 223 170 228 193 181 180 209 117 223 279 194 131 179 229 245 283 262
326 13 218 197 188 183 181 182 186 185 184 188 192 165 21 26 19 60 74 357 23 91 202 305 272 259 145 177 135 34 182 164 177 93 177 117 200 128 187 239 149 259 198 190 187 217 240 226 252 259 278 276 273 231
345 340 305 203 192 186 182 180 184 183 182 183 182 175 151 66 38 79 114 357 59 60 340 26 273 339 36 197 160 123 300 179 185 145 148 183 207 125 187 225 210 263 185 230 332 253 263 283 291 295 291 282 62 68
56 24 340 234 201 190 184 180 184 185 183 178 177 169 153 132 57 57 81 153 81 100 105 282 340 290 302 181 183 149 145 93 92 90 140 152 192 188 214 235 202 200 170 239 252 276 283 275 285 323 81 71 62 54
42 56 16 344 221 199 186 181 183 183 180 178 173 170 152 144 106 81 60 242 147 126 187 266 294 267 322 36 244 64 129 117 139 101 135 209 215 124 232 91 210 189 229 245 264 271 262 328 65 71 69 43 348 287
35 59 31 359 344 202 187 179 177 178 175 170 165 163 153 146 130 75 6 233 175 125 96 326 289 292 2 38 180 206 195 170 166 166 210 248 225 162 221 213 233 228 238 244 262 301 87 103 94 85 123 229 271 297
39 75 70 20 23 73 175 173 174 171 169 162 158 155 158 165 135 159 186 249 167 94 93 309 295 337 22 35 45 58 39 184 179 198 204 198 212 180 225 274 277 264 266 289 339 129 129 91 130 201 311 306 308 283
98 83 79 54 45 53 108 150 163 168 169 159 154 155 148 127 114 154 18 20 135 96 90 198 254 350 19 26 38 351 98 27 303 244 40 143 348 122 251 329 336 335 333 58 55 55 73 88 65 20 345 309 308 310
134 97 85 74 45 46 80 135 149 139 149 132 118 110 82 58 122 166 135 72 48 93 189 139 153 211 62 170 125 29 71 2 339 227 241 124 207 223 330 313 357 360 54 114 69 54 46 34 336 294 280 285 281 289
162 140 104 84 77 56 145 139 136 133 118 111 81 73 44 269 115 131 23 44 36 13 4 132 326 149 189 38 3 79 10 145 257 232 313 192 215 83 20 56 70 65 72 59 46 22 337 280 268 285 274 270 259 275
170 148 128 123 109 55 119 130 127 111 73 53 78 93 223 31 62 31 69 106 242 209 170 157 196 95 352 132 171 177 188 167 234 270 255 249 203 153 319 61 77 105 124 146 175 233 264 269 291 294 297 273 278 282
162 149 152 148 131 90 68 104 115 80 136 145 110 93 56 34 72 115 120 97 214 202 166 148 161 149 337 336 104 240 163 140 243 322 73 273 210 151 155 186 216 184 32 351 334 306 294 288 289 298 302 303 294 287
158 156 143 138 134 111 90 143 144 114 117 70 63 75 72 358 87 181 181 226 227 170 167 148 100 77 53 42 68 102 180 227 302 71 232 228 160 165 201 271 345 346 330 308 301 301 299 294 301 290 295 290 280 286
154 149 130 130 123 105 89 92 101 47 62 73 105 90 102 145 207 190 179 147 169 118 126 97 85 101 48 68 94 113 184 209 301 252 237 265 148 183 259 337 340 299 290 284 289 290 289 288 289 289 274 268 270 279
148 141 130 130 123 112 97 81 70 44 65 75 68 144 175 208 90 76 84 85 59 126 105 95 72 76 77 90 163 100 154 245 210 230 223 225 234 286 285 299 288 285 286 291 285 280 277 279 277 285 292 275 263 272
137 122 139 145 127 111 99 70 41 69 53 72 64 96 55 86 149 245 155 131 147 109 91 58 109 63 272 126 135 198 165 224 252 216 223 257 311 285 266 271 276 274 276 277 279 272 276 280 285 292 300 296 285 275
115 89 152 128 104 80 54 72 55 50 96 58 18 68 90 122 180 218 170 168 136 86 167 110 108 209 79 53 251 182 200 213 201 234 221 223 243 262 267 275 278 274 281 278 276 283 286 288 286 290 298 304 287 276
77 137 134 129 103 58 41 41 77 75 76 144 125 215 148 178 141 304 193 184 104 110 123 209 119 97 185 186 252 238 232 255 219 213 217 248 261 264 265 270 275 269 273 279 267 278 278 284 296 304 294 296 296 299
135 135 129 119 108 95 77 21 61 109 197 169 158 127 145 187 261 334 147 214 126 134 113 68 92 210 225 207 201 236 250 215 234 240 228 231 244 256 263 264 269 279 280 272 281 283 290 281 271 281 283 293 291 298
108 92 84 64 54 85 75 70 52 91 170 212 96 110 127 125 86 83 154 60 123 126 177 212 218 216 197 215 192 199 202 207 179 289 288 242 234 254 257 267 273 277 280 283 271 269 287 294 302 277 267 294 295 299
83 64 58 61 52 56 87 103 24 178 153 101 39 113 119 34 103 257 272 162 58 216 235 224 216 229 223 211 202 222 236 202 225 212 254 286 259 235 267 271 267 266 261 272 277 282 276 300 301 302 299 294 288 278
82 87 74 24 68 18 74 340 138 207 82 184 48 47 62 46 236 223 196 193 229 228 214 221 249 249 258 252 240 213 237 236 237 237 248 260 272 264 258 242 227 258 250 253 260 266 283 299 294 293 296 302 300 269
91 56 54 47 72 43 262 31 65 4 97 280 30 40 317 301 229 226 237 234 249 242 219 219 236 228 235 254 258 257 238 241 250 247 253 247 247 247 249 247 213 252 278 280 237 256 284 297 293 294 304 301 294 259
62 64 83 74 79 116 358 86 50 63 37 59 89 298 265 226 146 197 248 241 246 269 206 228 211 244 287 258 247 255 257 190 231 259 239 233 261 262 232 237 216 224 243 277 284 289 293 293 288 303 306 288 274 254
79 348 85 76 82 90 108 166 166 77 218 197 117 284 258 81 151 232 228 259 259 251 257 281 232 207 216 254 278 260 244 191 214 233 257 211 247 310 271 233 238 236 222 275 287 293 305 303 303 295 297 288 271 259
96 220 132 190 151 132 181 151 198 208 155 182 228 272 32 100 104 244 228 228 229 220 230 216 210 222 254 211 234 265 260 189 147 213 262 219 227 227 255 291 304 293 234 235 281 300 295 292 293 291 295 293 273 265
125 179 185 79 131 119 67 38 74 110 162 204 228 144 106 192 238 247 267 224 218 228 214 199 175 185 217 241 236 256 242 207 206 228 200 217 224 236 254 274 292 260 279 286 290 291 293 296 295 295 294 292 284 277
180 168 169 179 205 129 140 124 163 206 227 200 93 177 194 200 229 232 214 233 221 271 250 240 227 256 296 271 256 269 287 278 281 310 312 289 264 348 47 316 281 272 278 301 301 312 322 303 305 309 317 314 309 302
187 171 104 150 328 185 201 188 210 223 197 160 183 228 237 221 233 247 328 330 333 24 348 340 316 334 319 301 264 235 236 251 271 291 296 271 315 321 2 324 305 302 295 323 326 316 302 291 285 291 317 326 330 345
241 147 121 164 167 217 233 182 216 236 215 199 215 310 297 297 58 9 2 3 3 347 312 287 332 343 338 342 333 25 22 25 11 327 220 257 263 311 331 329 328 340 345 324 317 316 331 5 346 352 359 4 4 13
119 85 73 162 227 241 231 265 295 285 260 233 232 241 264 249 99 30 24 358 352 10 17 8 349 358 3 353 343 335 347 13 32 45 50 27 347 354 348 339 332 325 318 309 340 345 356 6 5 351 26 31 26 33
164 196 161 222 269 282 18 77 272 250 276 218 266 118 359 75 72 41 8 359 2 6 351 337 332 324 322 318 356 50 61 31 14 12 24 13 3 0 347 338 335 332 351 27 23 33 45 53 38 39 49 47 43 42
31 34 42 3 337 338 313 35 350 319 335 306 290 297 57 78 90 1 357 5 355 350 336 324 310 310 345 47 37 32 28 24 28 26 27 38 31 15 3 349 342 358 41 47 39 48 58 65 57 53 54 53 48 44